{"data":{"norad_id":67628,"epoch":"2026-05-25T04:17:35.107584Z","epoch_age_seconds":63029,"freshness":"FRESH","line1":"1 67628U 26020M   26145.17887856  .00016654  00000+0  61298-3 0  9997","line2":"2 67628  43.0051  67.6236 0001345 250.1108 109.9599 15.27600598 17816","mean_motion":15.27600598,"eccentricity":0.0001345,"inclination_deg":43.0051,"raan_deg":67.6236,"arg_perigee_deg":250.1108,"mean_anomaly_deg":109.9599,"bstar":0.00061298,"rev_number":1781,"period_min":94.265477631084,"perigee_km":482.06459767627,"apogee_km":483.91024014495,"semimajor_km":6861.1244189106,"source":"CELESTRAK","updated_at":"2026-05-25T13:38:21.651522Z"}}